Regional Weather Roundup
Issued by NWS Wakefield, VA

Home | Current Version | Previous Version | Text Only | Print | Product List | Glossary Off
Versions: 1 2 3 4 5 6 7 8 9 10 11 12 13 14 15 16 17 18 19 20 21 22 23 24 25 26 27

000
ASUS41 KAKQ 232115
RWRAKQ

REGIONAL WEATHER ROUNDUP
NATIONAL WEATHER SERVICE WAKEFIELD VA
500 PM EDT FRI JUN 23 2017

Note: "fair" indicates few or no clouds below 12,000 feet with no
significant weather and/or obstructions to visibility. * = Denotes
station may not report precipitation (e.g., rain,snow,etc.),
thunder or fog.

VAZ042-051-052>054-056-232200-
NORTHERN VIRGINIA

CITY           SKY/WX    TMP DP  RH WIND       PRES   REMARKS
WASH NATIONAL  CLOUDY    84  77  79 S14       29.72F
DULLES         CLOUDY    82  73  74 S14G24    29.72F
FORT BELVOIR   CLOUDY    83  75  76 S8        29.72F
QUANTICO       LGT RAIN  86  77  74 SW12G18   29.74F HX  97
FREDERICKSBRG* CLOUDY    88  75  65 SW15G21   29.75F HX  98
STAFFORD*      CLOUDY    85  76  73 S8        29.79F
WARRENTON      CLOUDY    86  70  58 SW12G17   29.73F
CULPEPER*      CLOUDY    86  73  66 SW10G17   29.74F
MANASSAS*      CLOUDY    84  74  71 S10       29.73F
LEESBURG*      CLOUDY    82  75  78 SW10      29.72F
WINCHESTER     MOSUNNY   81  70  69 S17G24    29.72F
FRONT ROYAL*   CLOUDY    81  70  69 SW8       29.72F
LURAY*         CLOUDY    81  68  65 SW13G21   29.76F
$$

VAZ048-049-060>072-079>083-232200-
CENTRAL AND SOUTH CENTRAL VIRGINIA

CITY           SKY/WX    TMP DP  RH WIND       PRES   REMARKS
RICHMOND       PTSUNNY   89  75  63 SW13      29.80F HX  99
CHESTERFIELD*  FAIR      89  74  60 SW10      29.81F HX  98
PETERSBURG*    MOSUNNY   88  70  56 SW10G18   29.82F
HANOVER        PTSUNNY   88  71  57 SW9G21    29.80F
TAPPAHANNOCK*  MOSUNNY   89  67  47 SW13G20   29.79F
QUINTON*       FAIR      88  76  66 SW7       29.79F HX  98
CHARLOTTSVILLE PTSUNNY   85  73  67 S15       29.77F
GORDONSVILLE*  MOCLDY    86  74  67 SW14G22   29.76F HX  95
ORANGE*        CLOUDY    86  72  62 S20G25    29.76F
LOUISA*        MOSUNNY   90  77  66 S12G21    29.77F HX 102
BUMPASS*       FAIR      86  76  71 SW10G18   29.78F HX  96
FARMVILLE*     MOSUNNY   89  68  49 S17G24    29.80F
CREWE*         MOCLDY    88  67  49 SW8       29.82F
FORT PICKETT*  MOCLDY   N/A N/A N/A SW13      29.83F
CHASE CITY*    FAIR      88  71  56 SW8G17    29.84F
CLARKSVILLE*   FAIR      88  72  58 SW14G23   29.84F
SOUTH HILL*    SUNNY     89  73  58 SW14G21   29.90F HX  97
LAWRENCEVILLE* FAIR      89  72  57 SW14      29.84F HX  95
EMPORIA*       MOSUNNY   88  72  58 S8        29.86S
$$

VAZ088>098-232200-
SOUTHEAST VIRGINIA

CITY           SKY/WX    TMP DP  RH WIND       PRES   REMARKS
NORFOLK        MOSUNNY   92  73  53 SW14G24   29.83F HX 100
VIRGINIA BEACH PTSUNNY   89  73  59 SW20G26   29.83F HX  97
NORFOLK NAVAL  MOSUNNY   90  73  57 SW13G21   29.84F HX  98
WEST POINT*    PTSUNNY   89  71  55 SW7       29.81F HX  96
SALUDA*        FAIR      88  74  63 SW7G17    29.81S HX  96
NEWPORT NEWS   MOSUNNY   88  73  61 SW15G25   29.83F HX  95
LANGLEY AFB    MOSUNNY   88  74  63 SW18      29.82F HX  97
FORT EUSTIS    MOSUNNY   90  75  61 SW12G20   29.81F HX 100
WILLIAMSBURG*  MOSUNNY   91  73  55 SW13G22   29.83F HX 100
HR EXEC AP*    FAIR      90  75  62 SW14G20   29.81F HX 100
FRANKLIN*      MOSUNNY   90  73  58 SW10G20   29.85F HX  98
US460-WAKEFLD  PTSUNNY   90  75  61 SW9G18    29.83F HX 100
$$

VAZ020-022-025-037-045-232200-
WEST CENTRAL AND SOUTHWEST VIRGINIA

CITY           SKY/WX    TMP DP  RH WIND       PRES   REMARKS
STAUNTON*      CLOUDY    83  69  61 SW15G24   29.81F
WAYNESBORO*    MOCLDY    81  72  72 SW9G20    29.82F
HOT SPRINGS VA PTSUNNY   73  61  64 W22G29    29.96F
LYNCHBURG      MOSUNNY   85  70  60 SW16G23   29.83F
DANVILLE       MOSUNNY   88  71  57 SW15G30   29.84F
SOUTH BOSTON*  FAIR      89  70  53 SW10G20   29.84F
MARTINSVILLE   PTSUNNY   86  70  59 SW5       29.88F
ROANOKE        PTSUNNY   86  70  58 W6        29.84F
BLACKSBURG     PTSUNNY   82  68  63 S8        29.92F
DUBLIN*        PTSUNNY   84  64  50 S6        29.90F
MARION*        MOSUNNY   83  64  52 SW9       29.94F
HILLSVILLE*    CLOUDY    78  64  62 S9G23     29.93F
RICHLANDS*     FAIR      81  65  58 SW10G21   29.91F
WISE*          CLOUDY    81  63  54 S14G21    29.91S
ABINGDON*      MOSUNNY   85  62  45 W13G22    29.88F
$$

MDZ021>025-VAZ099-100-232200-
SOUTHERN MARYLAND AND THE DELMARVA PENINSULA

CITY           SKY/WX    TMP DP  RH WIND       PRES   REMARKS
PATUXENT RIVER CLOUDY    86  74  67 SW15      29.75F
BAY BRIDGE APT LGT RAIN  82  75  78 SW10      29.73F
LEONARDTOWN    CLOUDY    86  72  62 SW12G17   29.77F
DOVER          CLOUDY    86  77  75 S20G28    29.70F HX  97
GEORGETOWN     CLOUDY    86  73  65 SW13G24   29.76F
EASTON         PTSUNNY   84  73  70 SW10G18   29.78F
CAMBRIDGE      MOSUNNY   84  75  74 S8G14     29.75F
SALISBURY      MOSUNNY   89  77  67 SW16G24   29.77F HX 101
OCEAN CITY     CLOUDY    82  75  79 SW16G22   29.79F
WALLOPS ISLAND PTSUNNY   87  75  67 SW10G21   29.80F HX  96
ACCOMACK*      CLOUDY    87  74  64 SW14G21   29.81F HX  95
$$

NCZ012>017-030>032-232200-
NORTH CENTRAL AND EASTERN NORTH CAROLINA

CITY           SKY/WX    TMP DP  RH WIND       PRES   REMARKS
ROANOKE RAPIDS FAIR      88  73  62 SW20      29.86F HX  96
RALEIGH        PTSUNNY   90  71  53 SW18G25   29.89F HX  96
ELIZABETH CITY SUNNY     89  77  67 SW18      29.87F HX 101
AHOSKIE*         N/A     87  74  66 S7        29.87F HX  96
EDENTON*       MOSUNNY   91  75  60 SW14G20   29.89F HX 101
CURRITUCK*     MOSUNNY   88  76  67 S9G20     29.88F HX  99
KILL DEVIL HLS SUNNY     87  75  66 CALM      29.88F HX  97
MANTEO         MOSUNNY   86  77  73 SW18      29.90F HX  96
CAPE HATTERAS  SUNNY     83  75  77 SW15G23   29.95F
TARBORO*       NOT AVBL
GOLDSBORO      MOSUNNY   91  74  57 SW17G23   29.89F HX 100
WASHINGTON     MOSUNNY  N/A N/A N/A SW14      29.90F
GREENVILLE     MOSUNNY   91  73  55 SW10G23   29.92F HX 100
NEW BERN       MOSUNNY   89  78  70 SW8       29.93F HX 103
WILMINGTON     MOSUNNY   88  76  67 S15       29.95F HX  99
$$

VAZ048-232200-
ELSEWHERE

CITY           SKY/WX    TMP DP  RH WIND       PRES   REMARKS
HARRISBURG PA  PTSUNNY   78  76  93 NW10      29.64F
BALTIMORE      LGT RAIN  84  73  69 SW16G23   29.70F
ANNAPOLIS      CLOUDY    84  76  76 SW14G20   29.71F
ANDREWS AFB    PTSUNNY   82  75  79 S17       29.72F
PHILADELPHIA   PTSUNNY   89  72  56 SW17      29.69F HX  96
HENDERSON NC   SUNNY     86  68  54 SW14G26   29.87F
GREENSBORO     MOSUNNY   87  70  56 SW22G32   29.87F
ROCKY MOUNT    MOSUNNY   89  74  60 SW16G23   29.88F HX  98
$$

VAZ100-232200-
MARINE

STATION/POSITION TIME  TEMP    WIND        PRES    WAVE   SWELL
                       AIR SEA DIR/SP/G            HT/PER HT/PER
                 (UTC) (F)     (DEG/KT/KT) (MB)    (FT/S) (FT/S)
BRANDYWINE LGT   2048   81     230/ 23/ 24 1007.2F
CAPE MAY NJ      2048   80 72  210/ 11/ 15 1007.2F
LEWES DE         2048   84 69  230/  8/ 14 1007.5F
15NM E FENWICK I 2050   72 68  190/ 19/ 21 1008.7F   4/ 5   2/ 8
OCEAN-CITY-INLET 2048   71 76  220/ 15/ 17 1009.0F
WACHAPREAGUE VA  2048   88 83  220/ 12/ 21 1009.2F
THOMAS POINT MD  2100   82 78  220/ 17/ 20   N/A
GOOSES REEF MD   2100   83 79  250/ 12/ 14 1007.9    1/ 2
COVE POINT MD    2048   84     230/ 12/ 15 1008.1F
SOLOMONS ISLAND  2048   85 77  230/ 17/ 24   N/A
PINEY POINT MD   2036          250/  9/ 12   N/A
POTOMAC MD       2100   85 79  240/ 16/ 19 1006.9    2/ 3
CAMBRIDGE MD     2048   85 81              1008.2F
LEWISETTA VA     2048   87 80  250/ 14/ 18 1008.1F
RAPPAHANNOCK LGT 2036          200/ 16/ 18 1010.1F
STINGRAY PT      2050   86     260/ 14/ 17 1010.0F
YORK RVR RNG VA  2048   86     240/ 19/ 24 1009.8F
YORKTOWN VA      2048   87 77  220/ 14/ 18 1009.4F
JAMESTOWN VA     2100   88 83  230/ 10/ 16   N/A
DOMINION TERM VA 2048   86     230/ 14/ 17 1010.2F
KIPTOPEKE VA     2036      79  240/  9/ 12   N/A
CHES BAY BRIDGE  2048   87 76  260/ 22/ 25 1009.8F
CAPE HENRY VA    2048   89     220/ 12/ 22   N/A
WILLOUBY STN VA  2048   85     240/ 16/ 19 1009.9F
S CRANEY ISL VA  2048   89     230/ 10/ 18 1010.1F
CAPE HENRY BUOY  2100      74                N/A     2/ 9
1ST LANDING BUOY 2100   86 76              1009.8    2/ 3
CAPE CHARLES BUO 2051      66                N/A     3/ 9
64NM E OF VA BCH 2050   75 73  200/ 17/ 19 1012.0F   3/ 4   2/ 8
DUCK PIER NC     2048   85 65  200/ 13/ 16 1011.4F
44100 DUCK FRF   2035      68                N/A     2/ 9
OREGON INLET NC  2036   81 82  190/ 23/ 26 1012.9F
HATTERAS NC      2048   82 79  230/ 12/ 19 1014.0F
DIAMOND SHLS NC  2050   81 81  220/ 19/ 25 1014.1F   4/ 4   2/ 9
CAPE LOOKOUT NC  2100   82     220/ 15/ 20 1014.1F
$$




USA.gov is the U.S. government's official web portal to all federal, state and local government web resources and services.